Погода в Борисовой Гриве

Россия / Санкт-Петербург и Ленинградская область     60°05′34″N   30°57′30″E
темп.,
°C
ветер,
м/с
пор.,
м/с
влажн.,
%
обл.,
%
осадки,
мм/ч
давл.,
гПа
погр.,
м
3 марта, ср
ср300:00−1зсз410884 0.0 1017334
03:00−2з411912 0.0 1017393
06:00−2з499426 0.0 1015321
09:00−2з5119147 0.0 1014453
12:000з6128777 0.0 1012510
15:00+2з6137888 0.0 1009843
18:00+1з61389100 0.3 1005896
21:00+1зсз51191100 0.5 1002822
4 марта, чт
чт400:000зсз4118698 0.9 1001807
03:00−3зсз4118049 0.9 1003496
06:00−5зсз39850 0.0 1002366
09:00−5зсз26900 0.0 1003360
12:00−3ссз248070 0.0 1003573
15:00−3с359184 0.4 1003425
18:00−4ссз4790100 0.7 1003686
21:00−5сз3984100 0.9 1005618
5 марта, пт
пт500:00−7сз389010 0.0 1005339
03:00−8сз379133 0.0 1006390
06:00−8сз369098 0.1 1007494
09:00−8сз368898 0.1 1009492
12:00−7ссз3581100 0.1 1010654
15:00−6с4579100 0.3 1013831
18:00−8с238138 0.0 1013106
21:00−9з128566 0.0 101526
6 марта, сб
сб600:00−9зсз249195 0.0 101690
03:00−10з259655 0.0 1017118
06:00−10з249615 0.0 1016114
09:00−9зюз379119 0.0 1015258
12:00−5зюз487632 0.0 1013704
15:00−3юз5107555 0.0 1009950
18:00−4ююз71591100 0.6 10031233
21:00−2юз71594100 2.7 9961107
7 марта, вс
вс700:00−1зюз81696100 4.6 9891144
03:00−3зсз71372100 5.6 9881098
06:00−10з6146465 0.0 9891231
09:00−10з4127432 0.0 9881229
12:00−9з698887 0.2 9881017
15:00−6с248794 0.7 990502
18:00−8с3886100 0.1 995553
21:00−8с5129284 0.3 1000708